Temp
-3 -4 -5 -6 -7 -7 -7 -8 -8 -9 -9 -9 -9 -9 -9 -9 -10 -10 -10 -10 -10 -10 -10 -10 -10 -10 -10 -10 -10 -10 -10 -10 -11 -11 -11 -12 -12 -12 -13 -13 -13 -14
-3 -4 -5 -6 -6 -7 -7 -8 -8 -9 -9 -9 -9 -9 -10 -10 -10 -10 -10 -10 -10 -10 -10 -10 -10 -10 -10 -10 -10 -10 -10 -10 -11 -11 -11 -11 -12 -12 -12 -13 -13 -13
-3 -4 -4 -5 -6 -7 -8 -8 -8 -9 -9 -9 -10 -10 -10 -10 -10 -10 -10 -10 -10 -10 -10 -10 -10 -10 -10 -10 -10 -10 -10 -11 -11 -11 -11 -11 -11 -12 -12 -13 -13 -13
-3 -4 -4 -5 -6 -7 -8 -9 -9 -9 -9 -9 -10 -10 -10 -10 -10 -11 -11 -10 -10 -10 -10 -10 -10 -10 -10 -10 -11 -11 -11 -11 -11 -11 -11 -11 -11 -11 -12 -12 -13 -13
-3 -4 -5 -5 -6 -7 -8 -8 -9 -9 -9 -9 -10 -10 -10 -11 -11 -11 -11 -11 -11 -11 -11 -11 -11 -11 -11 -11 -11 -11 -11 -11 -11 -11 -11 -11 -11 -11 -12 -12 -13 -13
-3 -4 -5 -6 -6 -7 -8 -8 -8 -9 -9 -10 -10 -11 -11 -11 -11 -11 -11 -11 -11 -11 -11 -11 -11 -11 -11 -11 -11 -11 -11 -11 -11 -11 -12 -11 -11 -11 -12 -12 -12 -13
-3 -4 -5 -6 -7 -7 -8 -8 -9 -9 -9 -10 -11 -11 -11 -11 -11 -12 -12 -12 -12 -12 -11 -11 -11 -11 -11 -11 -11 -11 -11 -11 -11 -11 -12 -12 -12 -11 -11 -12 -12 -13
-3 -4 -5 -6 -7 -7 -8 -8 -9 -9 -10 -11 -11 -11 -12 -12 -12 -12 -12 -12 -12 -12 -12 -12 -11 -11 -11 -11 -11 -11 -11 -11 -11 -11 -12 -12 -12 -12 -11 -12 -12 -13
-4 -4 -5 -6 -7 -7 -8 -8 -9 -9 -10 -11 -11 -12 -12 -12 -12 -12 -13 -13 -13 -13 -13 -12 -12 -12 -12 -11 -11 -11 -11 -11 -11 -11 -11 -12 -12 -12 -12 -12 -12 -13
-5 -5 -5 -6 -7 -7 -8 -8 -9 -10 -10 -11 -12 -12 -13 -13 -13 -13 -13 -13 -13 -13 -13 -13 -12 -12 -12 -12 -12 -12 -12 -12 -12 -12 -12 -12 -12 -12 -12 -12 -12 -13
-5 -5 -5 -6 -7 -7 -8 -8 -9 -10 -11 -11 -12 -12 -13 -13 -13 -13 -13 -13 -13 -13 -13 -13 -13 -13 -13 -12 -12 -12 -12 -12 -12 -12 -12 -12 -12 -12 -12 -12 -13 -13
-6 -5 -5 -6 -7 -7 -8 -9 -10 -11 -11 -12 -12 -13 -13 -14 -14 -14 -13 -13 -13 -13 -13 -13 -13 -13 -13 -13 -13 -13 -12 -12 -12 -12 -12 -12 -12 -12 -12 -13 -13 -13
-6 -6 -6 -6 -7 -8 -8 -9 -10 -11 -12 -12 -12 -13 -14 -14 -14 -14 -14 -14 -14 -14 -14 -14 -14 -14 -13 -13 -13 -13 -13 -13 -13 -13 -13 -13 -13 -12 -12 -13 -14 -13
-6 -6 -6 -6 -7 -8 -9 -10 -11 -11 -12 -13 -13 -13 -14 -14 -14 -14 -14 -14 -14 -14 -14 -14 -14 -14 -14 -14 -14 -14 -14 -14 -14 -13 -13 -13 -13 -13 -13 -14 -14 -14
-7 -7 -7 -7 -8 -9 -9 -10 -11 -12 -13 -13 -13 -13 -14 -14 -15 -15 -15 -15 -15 -15 -14 -14 -14 -14 -14 -14 -14 -14 -14 -15 -14 -14 -14 -14 -13 -13 -13 -14 -14 -14
-8 -8 -8 -8 -9 -9 -10 -11 -11 -12 -13 -13 -13 -14 -14 -15 -15 -15 -16 -16 -16 -15 -15 -15 -14 -14 -14 -15 -15 -15 -15 -15 -15 -15 -15 -14 -14 -13 -13 -14 -14 -14
-8 -9 -9 -9 -9 -9 -10 -11 -12 -12 -13 -14 -14 -14 -15 -15 -16 -16 -16 -16 -16 -16 -15 -15 -15 -14 -15 -15 -15 -15 -16 -15 -15 -15 -15 -15 -14 -14 -14 -14 -14 -14
-9 -9 -10 -10 -10 -10 -10 -11 -12 -13 -13 -14 -14 -14 -15 -16 -16 -16 -16 -16 -16 -16 -16 -16 -15 -15 -15 -15 -15 -16 -16 -17 -16 -16 -15 -15 -15 -14 -14 -14 -14 -14
-10 -10 -10 -10 -10 -10 -11 -12 -12 -13 -13 -14 -14 -14 -15 -16 -16 -16 -16 -16 -17 -16 -16 -16 -16 -16 -16 -16 -16 -16 -16 -18 -18 -18 -16 -15 -15 -14 -14 -14 -14 -14
-11 -11 -11 -11 -11 -11 -11 -12 -13 -13 -13 -14 -14 -15 -15 -15 -16 -16 -16 -16 -17 -16 -16 -16 -16 -16 -16 -16 -16 -16 -16 -17 -19 -19 -18 -17 -16 -15 -14 -14 -13 -13
-11 -12 -12 -12 -11 -11 -12 -12 -13 -13 -13 -14 -15 -15 -15 -16 -16 -16 -16 -16 -16 -17 -17 -16 -16 -16 -16 -16 -16 -16 -17 -17 -18 -18 -19 -18 -17 -16 -14 -13 -13 -13
-12 -12 -12 -12 -12 -12 -12 -12 -13 -13 -14 -14 -15 -15 -15 -16 -16 -16 -17 -17 -17 -17 -17 -16 -16 -16 -16 -16 -16 -16 -17 -17 -18 -18 -18 -18 -18 -16 -14 -13 -13 -13
-13 -13 -13 -13 -13 -13 -12 -12 -13 -14 -14 -15 -15 -15 -16 -16 -16 -16 -16 -17 -17 -17 -17 -16 -16 -16 -16 -16 -16 -17 -17 -18 -18 -18 -18 -18 -17 -16 -14 -13 -13 -13
-13 -13 -14 -14 -14 -13 -12 -12 -13 -14 -14 -15 -16 -16 -16 -16 -17 -17 -16 -16 -17 -17 -17 -17 -16 -16 -16 -16 -16 -17 -17 -17 -17 -18 -18 -18 -17 -15 -14 -14 -14 -13
-13 -13 -14 -14 -14 -14 -13 -13 -14 -15 -15 -16 -16 -16 -16 -16 -17 -17 -16 -16 -16 -17 -17 -17 -16 -16 -16 -16 -17 -17 -17 -17 -17 -17 -17 -17 -17 -15 -14 -14 -14 -14
-13 -13 -14 -14 -14 -14 -13 -13 -15 -15 -16 -16 -16 -16 -16 -16 -16 -17 -17 -17 -17 -17 -17 -17 -17 -16 -16 -17 -17 -17 -17 -18 -18 -17 -17 -17 -16 -15 -15 -14 -14 -14
Height
1439 1438 1437 1435 1434 1433 1432 1432 1431 1431 1431 1431 1431 1431 1431 1432 1432 1432 1432 1432 1432 1432 1432 1432 1432 1432 1432 1432 1432 1432 1432 1432 1432 1432 1432 1431 1431 1431 1432 1432 1432 1433
1434 1433 1432 1430 1429 1428 1427 1427 1426 1426 1426 1426 1426 1426 1427 1427 1428 1428 1428 1428 1428 1428 1429 1429 1429 1429 1429 1429 1429 1429 1429 1429 1429 1429 1428 1428 1428 1428 1428 1428 1429 1429
1430 1428 1427 1426 1424 1424 1423 1422 1421 1421 1421 1421 1422 1422 1422 1423 1423 1423 1424 1424 1424 1424 1425 1425 1425 1425 1426 1426 1426 1425 1426 1426 1426 1426 1425 1425 1425 1425 1425 1425 1425 1426
1425 1423 1422 1421 1420 1419 1418 1417 1417 1416 1416 1416 1417 1417 1417 1418 1419 1419 1419 1420 1420 1420 1421 1421 1422 1422 1422 1422 1422 1422 1422 1422 1423 1423 1422 1422 1423 1422 1422 1422 1422 1422
1420 1418 1417 1416 1415 1414 1413 1412 1411 1411 1411 1411 1411 1412 1412 1413 1414 1414 1415 1415 1416 1416 1417 1417 1418 1418 1419 1419 1419 1419 1419 1419 1419 1419 1419 1419 1420 1419 1419 1419 1419 1419
1415 1413 1412 1411 1410 1409 1408 1407 1407 1406 1406 1406 1406 1407 1407 1408 1409 1409 1410 1411 1411 1412 1412 1413 1414 1414 1415 1415 1415 1415 1416 1416 1416 1416 1416 1416 1416 1416 1416 1416 1416 1416
1409 1408 1408 1407 1405 1404 1402 1402 1402 1401 1401 1401 1401 1401 1402 1403 1403 1405 1405 1406 1407 1407 1408 1408 1409 1410 1411 1411 1411 1412 1412 1412 1413 1413 1412 1412 1413 1413 1413 1413 1413 1413
1404 1403 1402 1401 1400 1398 1397 1397 1396 1397 1397 1396 1396 1397 1397 1398 1398 1399 1400 1401 1402 1402 1403 1404 1404 1405 1406 1407 1407 1408 1408 1409 1409 1409 1409 1409 1409 1409 1409 1409 1409 1410
1398 1397 1396 1396 1395 1393 1392 1392 1392 1392 1392 1391 1391 1392 1392 1393 1393 1394 1395 1396 1397 1397 1398 1399 1400 1401 1402 1402 1403 1404 1404 1405 1405 1405 1405 1405 1405 1406 1406 1406 1406 1406
1392 1391 1390 1389 1389 1388 1388 1388 1387 1387 1387 1387 1387 1387 1387 1388 1388 1389 1390 1391 1392 1392 1393 1394 1395 1396 1397 1398 1399 1399 1400 1400 1401 1401 1401 1401 1402 1402 1402 1402 1402 1403
1385 1385 1384 1383 1383 1383 1383 1383 1383 1383 1382 1382 1382 1382 1383 1383 1384 1385 1385 1386 1387 1387 1388 1389 1390 1391 1392 1393 1394 1394 1395 1396 1396 1397 1397 1397 1398 1398 1399 1398 1398 1399
1378 1378 1377 1377 1377 1378 1379 1379 1378 1378 1378 1378 1378 1378 1378 1378 1379 1380 1380 1381 1382 1383 1383 1384 1385 1386 1387 1388 1389 1390 1391 1391 1392 1392 1393 1393 1394 1394 1395 1395 1395 1396
1371 1371 1371 1372 1373 1374 1374 1374 1374 1374 1374 1374 1374 1373 1373 1374 1374 1375 1376 1377 1377 1378 1378 1379 1380 1381 1382 1383 1384 1385 1386 1387 1387 1388 1388 1389 1390 1390 1391 1391 1391 1392
1366 1367 1367 1368 1369 1370 1370 1370 1370 1370 1370 1370 1369 1369 1369 1369 1369 1370 1371 1372 1373 1373 1374 1374 1375 1376 1377 1378 1379 1380 1382 1383 1383 1383 1384 1384 1385 1386 1387 1387 1388 1388
1363 1363 1363 1364 1365 1366 1366 1366 1366 1366 1366 1366 1365 1365 1365 1365 1365 1366 1366 1367 1368 1368 1369 1370 1371 1371 1373 1374 1375 1376 1377 1378 1379 1379 1379 1380 1381 1382 1383 1384 1384 1385
1359 1359 1359 1359 1360 1361 1361 1361 1362 1362 1362 1362 1361 1361 1361 1361 1361 1361 1362 1363 1363 1364 1365 1365 1366 1367 1369 1370 1370 1372 1373 1374 1374 1374 1375 1376 1377 1378 1379 1380 1381 1382
1355 1354 1354 1354 1355 1356 1356 1357 1358 1358 1358 1358 1357 1357 1357 1357 1357 1357 1357 1358 1359 1359 1360 1361 1362 1363 1364 1365 1367 1368 1368 1369 1369 1370 1371 1372 1373 1374 1375 1376 1377 1378
1350 1349 1348 1349 1351 1351 1352 1352 1353 1353 1353 1353 1353 1353 1353 1353 1353 1353 1353 1354 1354 1355 1355 1356 1357 1359 1360 1361 1363 1364 1365 1365 1365 1365 1367 1367 1369 1370 1371 1373 1374 1375
1344 1343 1342 1343 1345 1346 1347 1347 1348 1348 1348 1348 1348 1348 1349 1349 1349 1349 1349 1349 1350 1350 1351 1351 1353 1354 1356 1357 1358 1360 1361 1362 1362 1362 1362 1363 1365 1366 1368 1369 1371 1372
1340 1338 1337 1336 1338 1340 1341 1341 1342 1342 1343 1343 1343 1343 1343 1344 1344 1344 1344 1345 1345 1346 1346 1346 1348 1350 1352 1353 1354 1355 1357 1358 1359 1359 1360 1360 1361 1363 1364 1366 1367 1369
1336 1334 1333 1332 1333 1334 1335 1336 1336 1337 1338 1338 1339 1339 1339 1339 1340 1340 1340 1340 1341 1341 1341 1341 1343 1345 1347 1348 1350 1351 1353 1354 1355 1356 1357 1357 1358 1360 1361 1363 1364 1366
1332 1330 1329 1328 1329 1330 1331 1331 1331 1332 1333 1334 1335 1335 1335 1335 1335 1336 1336 1336 1337 1337 1337 1336 1338 1341 1343 1344 1345 1347 1348 1350 1351 1352 1353 1354 1355 1356 1358 1360 1361 1362
1328 1326 1325 1324 1325 1326 1327 1327 1327 1329 1330 1330 1330 1330 1330 1331 1331 1331 1332 1332 1332 1332 1332 1332 1334 1336 1338 1339 1340 1342 1344 1346 1347 1348 1350 1351 1352 1353 1355 1357 1358 1359
1323 1322 1321 1320 1320 1321 1322 1323 1323 1325 1326 1326 1326 1326 1327 1327 1327 1327 1327 1327 1328 1328 1328 1328 1329 1332 1334 1334 1336 1338 1340 1341 1343 1344 1346 1348 1349 1350 1352 1354 1355 1356
1319 1317 1316 1315 1315 1316 1318 1318 1320 1322 1322 1322 1322 1323 1323 1323 1324 1324 1323 1323 1323 1324 1324 1324 1325 1328 1330 1330 1332 1334 1336 1338 1339 1341 1343 1344 1346 1347 1349 1350 1351 1352
1315 1312 1311 1310 1310 1312 1313 1314 1316 1318 1318 1318 1318 1319 1319 1319 1320 1320 1320 1319 1319 1320 1320 1320 1321 1324 1325 1326 1328 1330 1332 1335 1336 1338 1340 1341 1343 1345 1346 1347 1348 1349
Wind_Speed
39 37 36 35 34 33 31 29 29 29 30 30 29 28 27 26 26 25 25 24 24 24 24 24 24 23 23 22 22 21 21 21 21 21 20 20 19 19 18 17 16 16
40 38 37 35 34 33 31 30 29 29 30 30 31 30 29 28 27 27 26 26 25 25 25 25 25 24 24 23 23 22 22 22 21 21 21 21 20 20 19 18 17 17
41 39 37 35 34 33 32 31 30 30 30 31 31 32 31 30 28 28 28 27 27 27 26 26 26 26 25 24 24 23 23 23 22 22 22 22 21 21 21 20 19 18
42 40 37 35 35 34 33 32 31 30 30 31 31 32 32 31 30 29 29 29 28 28 28 27 27 27 26 25 25 24 24 24 23 23 24 23 22 22 22 21 21 19
43 41 38 36 35 34 34 34 33 31 30 31 31 32 33 32 32 31 31 30 29 30 29 29 29 28 27 27 26 26 25 25 25 25 25 24 23 23 22 22 22 21
44 42 39 37 36 35 35 35 33 32 31 30 31 32 33 33 33 32 32 31 31 31 31 31 30 30 29 29 28 28 27 27 27 27 27 26 25 24 23 23 23 22
46 43 40 38 37 36 36 35 34 33 31 30 31 32 33 33 33 33 33 32 32 32 32 32 32 31 31 31 30 30 29 29 29 29 29 28 27 26 25 24 24 23
47 44 41 39 38 38 37 36 35 34 32 31 31 32 33 33 34 34 33 33 33 33 33 33 33 33 33 32 32 32 31 30 30 30 31 30 28 28 27 26 25 23
48 46 43 41 40 39 38 37 36 34 32 32 31 31 33 34 34 34 34 34 34 33 33 33 33 33 33 33 34 34 33 32 32 32 32 31 30 29 28 27 26 24
51 48 45 43 42 40 38 36 36 35 33 33 32 31 33 34 34 34 34 34 34 34 34 34 34 33 33 33 34 34 33 33 32 32 32 32 30 29 28 28 27 25
52 50 47 46 44 41 38 36 36 35 34 33 33 32 32 34 35 35 35 35 35 35 34 34 34 33 33 33 33 33 33 33 32 32 32 31 30 28 28 28 27 25
52 53 50 48 45 41 38 36 36 35 34 34 33 33 32 33 34 35 35 35 34 34 34 33 33 33 33 33 33 33 33 32 32 32 31 31 29 27 26 27 27 26
50 53 52 49 45 41 38 36 36 35 34 34 34 33 32 33 34 35 35 34 34 33 33 33 33 33 33 32 33 33 32 31 31 31 31 30 28 26 25 25 26 26
49 51 53 50 44 40 38 37 36 36 35 34 34 33 32 32 33 34 34 34 33 33 33 32 32 32 32 31 32 32 31 30 29 30 30 29 27 26 24 24 24 25
48 50 52 50 44 41 39 38 37 36 35 34 34 32 31 31 31 31 32 33 33 33 32 32 32 31 30 30 31 30 29 28 28 29 28 27 26 26 25 24 24 25
48 49 51 50 45 42 40 38 37 36 35 34 33 32 30 29 29 30 31 31 32 32 32 31 31 30 29 29 29 28 26 26 27 27 27 26 26 26 26 25 25 24
47 48 50 50 46 42 41 38 36 36 35 33 32 31 29 28 28 29 30 31 31 32 31 31 30 29 28 28 27 26 25 25 26 26 26 26 27 27 26 25 24 22
45 46 49 50 46 42 41 38 36 36 35 33 31 30 29 27 27 28 29 29 30 30 30 30 29 27 26 26 25 24 23 24 26 25 25 26 26 26 25 24 23 21
44 45 47 48 47 43 41 38 36 36 35 33 30 29 28 27 26 27 27 27 28 29 29 29 28 26 25 24 24 23 22 22 24 25 25 25 25 24 24 23 22 21
44 44 46 47 47 43 40 38 36 36 35 32 30 29 28 27 26 26 26 26 26 27 27 28 27 25 24 23 23 23 22 22 24 26 26 25 24 22 21 22 22 20
43 44 45 47 47 43 40 39 37 35 34 32 29 28 27 26 25 25 25 25 25 25 26 27 26 23 22 22 22 22 22 22 25 27 26 26 26 24 22 21 20 18
42 44 45 47 47 44 40 40 39 35 33 31 29 28 27 26 25 25 25 24 23 23 25 27 25 22 21 21 21 22 21 22 25 26 25 26 27 26 23 20 18 15
41 42 44 46 47 44 41 41 39 33 31 30 28 27 27 26 25 24 23 23 22 23 24 25 24 20 20 20 21 21 21 23 25 25 23 24 26 26 23 20 17 14
40 40 42 44 46 44 41 41 38 32 30 29 27 26 26 25 24 24 23 23 22 21 23 24 22 19 18 20 21 21 22 24 26 26 25 25 26 27 24 19 17 15
41 39 40 42 44 43 41 41 36 30 28 28 27 25 25 25 24 24 23 22 21 21 21 23 22 18 17 20 21 21 22 24 26 26 25 25 26 26 24 19 18 19
43 39 38 40 41 42 41 39 34 29 28 28 27 25 25 25 24 24 23 22 21 21 21 21 20 17 17 20 21 21 23 24 24 23 22 24 24 23 22 20 21 22
Wind_Direction
281 282 282 282 281 280 282 283 281 275 269 264 261 260 258 259 259 258 259 259 260 262 263 265 267 268 270 272 273 274 276 277 279 281 282 283 285 284 284 283 281 280
279 280 281 281 279 279 280 282 281 276 269 264 261 259 258 257 257 258 259 259 258 259 261 262 264 266 268 269 271 272 274 276 277 278 280 281 283 284 284 283 282 280
277 278 279 280 280 279 278 278 279 277 272 265 260 258 257 256 257 258 258 258 259 259 259 260 261 263 265 266 267 269 271 273 275 276 277 278 280 282 283 282 280 279
276 277 278 279 279 277 276 275 277 278 275 268 262 259 257 257 256 257 257 257 258 259 259 260 260 261 262 262 263 265 267 270 272 274 275 277 278 279 280 280 278 277
274 275 276 277 277 276 275 274 276 277 277 272 266 261 259 257 256 256 257 257 257 259 260 260 261 261 261 261 260 261 263 266 269 272 274 275 277 277 277 277 276 276
272 273 273 274 275 275 273 274 275 276 277 274 268 263 260 258 257 256 257 257 257 258 259 260 261 261 261 261 260 260 261 264 267 270 272 274 275 276 276 275 272 272
270 272 272 271 272 273 273 274 274 274 276 275 269 264 261 259 257 256 257 257 257 257 258 259 260 261 262 261 261 261 261 263 266 268 270 273 274 275 275 274 271 269
269 270 269 269 269 271 273 273 273 274 275 274 271 266 262 259 258 256 256 257 257 257 257 258 259 260 261 261 262 262 262 263 265 267 269 271 272 273 274 274 272 268
266 268 267 266 267 268 271 274 273 273 274 274 272 267 263 259 258 256 255 255 256 256 257 257 258 259 260 261 262 262 262 263 264 266 268 269 270 270 271 272 270 266
264 265 265 264 265 267 270 273 273 272 272 273 272 268 263 259 257 256 255 255 255 255 256 257 257 258 259 260 261 262 262 263 263 264 266 267 268 268 268 268 267 264
263 262 263 263 264 266 269 271 272 270 271 272 272 269 264 259 256 255 254 254 255 256 256 257 258 259 259 259 260 261 262 262 263 263 264 265 266 265 266 266 265 262
265 261 262 262 263 265 268 270 271 269 269 271 271 269 265 260 256 255 254 254 255 256 257 257 258 259 259 259 260 260 261 261 262 263 263 264 264 263 263 262 260 258
270 263 262 262 263 264 267 269 269 268 268 269 270 268 265 261 258 255 254 255 256 256 257 258 259 260 260 260 260 260 260 260 261 263 263 262 262 261 259 258 258 257
277 268 263 262 262 263 265 266 267 268 267 268 269 268 266 263 260 258 256 255 256 256 257 259 259 260 261 261 262 262 262 262 262 262 262 261 260 258 255 253 255 257
283 272 264 261 261 262 263 264 266 267 267 268 269 268 267 264 262 259 257 256 256 256 257 258 259 260 262 262 263 263 264 264 263 261 260 258 256 254 251 250 253 256
286 275 265 260 259 261 263 264 266 267 267 268 268 268 267 264 262 260 258 257 257 258 258 258 258 259 261 262 264 265 265 262 259 258 257 254 251 249 249 249 252 255
287 277 267 260 258 261 263 264 265 267 267 267 268 268 266 264 262 260 259 258 258 259 259 259 259 258 259 261 262 265 265 262 258 254 251 250 248 248 248 249 251 253
291 280 270 261 258 260 262 264 265 266 266 267 267 267 267 265 262 261 260 259 259 260 260 260 259 258 258 259 260 260 260 260 259 255 249 245 245 246 246 246 248 248
293 283 273 263 258 259 262 263 264 265 265 266 266 267 267 265 263 262 261 261 261 262 262 261 259 257 256 257 257 255 252 249 251 253 252 249 245 244 242 242 244 243
294 284 274 264 258 257 259 262 263 263 264 264 264 264 264 264 264 263 263 263 263 263 263 262 259 256 256 255 253 251 247 240 239 244 249 251 251 245 239 239 241 237
296 285 276 266 258 255 257 260 261 261 262 263 262 263 264 264 264 264 264 264 264 263 262 261 259 257 255 253 250 247 241 235 234 236 240 245 248 246 241 239 235 231
300 288 277 267 259 255 257 261 262 261 261 262 261 262 262 262 262 264 265 265 265 264 262 260 259 256 253 249 246 242 235 230 230 232 235 240 243 243 241 235 229 231
304 291 279 269 260 256 260 264 264 262 261 260 259 260 261 262 264 265 266 267 266 264 262 261 258 254 250 247 242 237 229 223 225 228 233 239 241 239 237 231 226 231
306 293 282 272 263 259 262 266 265 262 260 259 258 259 261 263 265 266 267 268 267 265 263 262 258 251 244 241 237 230 223 220 222 225 229 234 236 234 233 232 230 232
308 296 285 276 267 262 263 266 265 261 259 258 257 258 260 262 263 265 268 270 269 267 264 260 257 248 237 235 233 225 219 219 222 225 229 233 234 233 232 234 236 235
310 299 288 279 271 265 264 266 264 259 255 254 255 256 258 260 263 265 269 271 271 268 263 258 255 245 232 230 229 221 215 215 218 224 232 234 232 231 233 238 239 234